Location: ??
(35.5052°N, 139.7262°E)
Time: 22:19:37
(UTC+00:00)

N. Korean satellite - Pass Details

Date: 30 September 2021
Orbit: 450 x 495 km, 97.3° (Epoch: 21 October)

Event Time Altitude Azimuth Distance (km) Brightness Sun altitude
Rises 20:01:55 0° 8° (N) 2,549 10.4 -7.7°
Reaches altitude 10° 20:03:59 10° 6° (N) 1,672 9.4 -7.3°
Maximum altitude 20:07:34 68° 283° (WNW) 528 6.5 -6.6°
Drops below altitude 10° 20:11:10 10° 200° (SSW) 1,679 9.1 -5.8°
Sets 20:13:14 0° 198° (SSW) 2,560 10.0 -5.4°
